[[{"header":{"parameterUnit":"m.s-1","parameterCategory":1,"la1":30.2992,"la2":30.254,"lo1":-89.0895,"lo2":-89.0443,"dy":0.0025,"dx":0.0025,"nx":19,"ny":19,"refTime":"2026-04-17T21:00:00:Z","depth":0,"parameterNumber":2,"parameterNumberName":"U-component_of_WINDS"},"data":[0,0,0,1.9348,1.935,1.9447,1.9448,1.9566,1.9567,0,0,0,0,0,0,0,0,0,0,0,1.9319,1.932,1.9348,1.935,1.9447,1.9448,1.9566,1.9567,0,0,0,0,0,0,0,0,0,0,0,1.9318,1.932,1.9321,1.935,1.9447,1.9448,1.9566,1.9494,0,0,0,0,0,0,0,0,0,0,1.94,1.9374,1.9319,1.9321,1.9351,1.9447,1.9448,1.949,1.9498,1.9521,0,1.9543,0,1.9557,1.9575,1.9575,0,0,0,1.935,1.9368,1.9394,1.9321,1.9352,1.9447,1.9403,1.9495,1.9504,1.9531,1.9545,1.9549,1.9559,1.9576,1.9576,1.971,1.9711,0,0,1.9344,1.9336,1.9388,1.94,1.9388,1.94,1.9406,1.95,1.9514,1.9545,1.9552,1.9561,1.9577,1.9577,1.971,1.9711,0,0,0,1.9329,1.9332,1.9356,1.9395,1.9413,1.9403,1.941,1.951,1.9518,1.9554,1.9562,1.9577,1.9579,1.9709,1.971,1.9732,0,0,0,1.9326,1.9323,1.9354,1.935,1.9411,1.9463,1.9417,1.9512,1.9523,1.9562,1.9577,1.958,1.9709,1.971,1.973,1.9744,0,0,0,1.9313,1.9322,1.9336,1.9349,1.9391,1.9462,1.9476,1.9514,1.9528,1.9576,1.958,1.9708,1.9709,1.9728,1.9741,1.9774,0,0,0,1.9295,1.9356,1.9336,1.9407,1.939,1.9476,1.9476,1.954,1.9583,1.9578,1.9709,1.971,1.9728,1.9739,1.9772,1.9799,1.9811,0,0,1.9367,1.9365,1.9406,1.9391,1.9479,1.9462,1.9552,1.9599,1.9611,1.9676,1.9679,1.9731,1.9741,1.9774,1.988,1.9889,0,0,0,1.9426,1.9456,1.9481,1.9522,1.956,1.9592,1.9626,1.9643,1.9698,1.9644,1.9753,1.9759,1.9779,1.9792,1.98,1.9815,1.9716,1.9716,1.9716,1.9515,1.9526,1.9595,1.9616,1.9656,1.9689,1.9721,1.9748,1.975,1.9775,1.9794,1.9857,1.9873,1.9878,1.9894,1.9811,1.9811,1.9811,1.9811,1.9618,1.9661,1.9658,1.9723,1.9733,1.9787,1.982,1.9818,1.9867,1.9845,1.9863,1.9835,1.9888,1.9902,1.9813,1.9813,1.9812,1.9812,1.9812,1.9676,1.9698,1.9717,1.9774,1.9817,1.9836,1.9883,1.9891,1.9898,1.9916,1.9934,1.9934,1.9932,1.9925,1.9925,1.9925,1.9925,1.9925,1.9925,1.9727,1.9748,1.9788,1.983,1.9855,1.9888,1.992,1.9943,1.9971,1.9973,1.9973,1.9968,1.9892,1.9871,1.9929,1.9928,1.9928,1.9928,1.9927,1.9824,1.9803,1.9864,1.9888,1.9936,1.9974,1.9984,2.0031,2.0051,2.0073,2.0064,2.0007,2.0005,1.9999,1.9981,2.0064,2.0064,2.0064,2.0064,1.9871,1.987,1.9932,1.997,2.0008,2.0022,2.0085,2.0108,2.0128,2.014,2.013,2.0108,2.0101,2.0102,2.0094,2.0078,2.0183,2.0184,2.0184,1.9929,1.9932,1.9986,2.0007,2.0043,2.0073,2.0132,2.0173,2.0191,2.0188,2.0149,2.0144,2.0109,2.0097,2.0093,2.008,2.005,0,0]},{"header":{"parameterUnit":"m.s-1","parameterCategory":1,"la1":30.2992,"la2":30.254,"lo1":-89.0895,"lo2":-89.0443,"dy":0.0025,"dx":0.0025,"nx":19,"ny":19,"refTime":"2026-04-17T21:00:00:Z","depth":0,"parameterNumber":3,"parameterNumberName":"V-component_of_WINDS"},"data":[0,0,0,4.0262,4.0265,4.0417,4.0418,4.061,4.0611,0,0,0,0,0,0,0,0,0,0,0,4.022,4.0222,4.0262,4.0266,4.0417,4.0418,4.0609,4.0611,0,0,0,0,0,0,0,0,0,0,0,4.0219,4.0221,4.0223,4.0266,4.0417,4.0418,4.0609,4.0494,0,0,0,0,0,0,0,0,0,0,4.0347,4.0312,4.0221,4.0223,4.0267,4.0417,4.0418,4.0489,4.0501,4.0541,0,4.0581,0,4.0599,4.0624,4.0625,0,0,0,4.0263,4.0302,4.034,4.0223,4.0269,4.0416,4.0348,4.0496,4.051,4.0558,4.0584,4.0591,4.0603,4.0626,4.0627,4.0873,4.0874,0,0,4.0254,4.0248,4.033,4.035,4.033,4.0343,4.0353,4.0504,4.0531,4.0584,4.0595,4.0606,4.0627,4.0628,4.0872,4.0873,0,0,0,4.0232,4.0243,4.0277,4.0342,4.0369,4.0347,4.0359,4.0524,4.0536,4.0597,4.0608,4.0628,4.063,4.087,4.0872,4.093,0,0,0,4.0227,4.023,4.0274,4.0271,4.0367,4.045,4.0375,4.0525,4.0543,4.0607,4.0628,4.0632,4.0869,4.0871,4.0926,4.0959,0,0,0,4.0209,4.0228,4.0251,4.0271,4.0336,4.0447,4.0468,4.0529,4.0549,4.0625,4.0633,4.0868,4.0871,4.0922,4.0952,4.1021,0,0,0,4.0187,4.03,4.0252,4.0381,4.0335,4.0483,4.0467,4.0577,4.0649,4.0629,4.0869,4.0872,4.092,4.0948,4.1016,4.1077,4.1102,0,0,4.0326,4.0317,4.0393,4.0354,4.051,4.046,4.0623,4.0694,4.0705,4.0815,4.0821,4.0927,4.0951,4.102,4.1247,4.1267,0,0,0,4.0435,4.049,4.0532,4.0602,4.066,4.071,4.0757,4.0782,4.0876,4.0762,4.0971,4.0986,4.1026,4.1055,4.1072,4.1106,4.0886,4.0885,4.0885,4.0623,4.0633,4.0759,4.0786,4.0852,4.0898,4.0952,4.0993,4.0983,4.1032,4.1065,4.1202,4.1236,4.1249,4.1284,4.1098,4.1098,4.1098,4.1099,4.0826,4.0905,4.0887,4.1003,4.1011,4.1107,4.1154,4.1142,4.1231,4.1178,4.1214,4.1155,4.127,4.1301,4.1103,4.1102,4.1102,4.1101,4.1101,4.095,4.0989,4.1019,4.1117,4.1192,4.1213,4.1299,4.1302,4.1306,4.1341,4.1375,4.1374,4.1372,4.1357,4.1358,4.1358,4.1358,4.1359,4.1359,4.1066,4.1098,4.1171,4.124,4.1283,4.134,4.1384,4.1426,4.1472,4.1467,4.1468,4.145,4.1281,4.1237,4.1367,4.1365,4.1364,4.1364,4.1363,4.1268,4.1222,4.1336,4.1379,4.1457,4.1529,4.1532,4.1615,4.165,4.1691,4.1666,4.154,4.153,4.1516,4.148,4.1665,4.1665,4.1665,4.1665,4.1372,4.1367,4.1482,4.155,4.1617,4.163,4.1753,4.1787,4.1815,4.1836,4.1809,4.1762,4.1748,4.1746,4.1727,4.1694,4.1929,4.1929,4.1929,4.1495,4.1496,4.1603,4.1631,4.1692,4.1742,4.1858,4.1933,4.1955,4.194,4.1851,4.184,4.1764,4.1739,4.1723,4.1694,4.1632,0,0]}]]